Showing default

OPS 4467 A, 812

Orbit data source: Space-Track

OPS 4467 A, 812 is an American payload satellite in SSO that was launched on Thu, 18 Jun 1964 UTC via a THOR SLV-2 AGENA D launch vehicle from the Air Force Western Test Range (AFWTR). Payload-class satellites include a variety of spacecraft equipped with specific instruments for various scientific and technological missions. These include communications satellites like Starlink; space stations such as the ISS; scientific satellites like the Hubble; Earth observation satellites from companies like Planet Labs, Umbra, and HawkEye 360; GPS; miniature CubeSats for education and research; and military/defense satellites.

Loading next visibility...
Identifier
812, 1964-031A
Orbit
SSO
Country
Flag of USUS
Related business
Manufacturer
RCA/East Windsor
Mission
Spacecraft
Bus & Motor
P35, Unknown motor
Mass
50 kg wet, 50 kg dry
Launch date (UTC)
1964-06-18 (62 years ago)
Launch vehicle
THOR SLV-2 AGENA D
Launch site
Air Force Western Test Range (AFWTR)
Object type
Payload
Rocket body
Debris
Shape & HBR
Unknown
Radar Cross Section
Medium (>0.1 m² and <1 m²)

Expand to show TLE details & history
Last TLE update: 11 hours ago

TLE from 11 hours ago
0 OPS 4467 A
1 00812U 64031A   25351.90273455  .00000066  00000-0  51489-4 0  9999
2 00812  99.7943 121.2863 0004954 229.8999 130.1743 14.24540625190481
Epoch: 2025-12-17T21:39Z
TLE epoch observation values (Epoch: 2025-12-17T21:39:56.265Z)
Latitude
0.00004°
Longitude
69.53593°
Altitude
815.22 km
Speed
7.444 km/s
True Right ascension
08h 05m 08s
True Declination
0° 00' 00"
Sunlit
Object was in full shadow at epoch
Visualization orbit readout
Latitude
Unknown
Longitude
Unknown
Altitude
Unknown
Speed
Unknown
Apparent Right ascension
Unknown
Apparent Declination
Unknown
Sunlit
N/A
Visualization observer readout
Local Sidereal Time
07:34:44
Azimuth
Unknown
Elevation
Unknown
Doppler factor
Unknown
Orbital elements
Apogee altitude
810.805 km
Perigee altitude
803.686 km
Semi-major axis
7,185.382 km
Eccentricity
0.0005
Inclination
99.7943°
RAAN
121.2863°
Arg. of periapsis
229.8999°
True anomaly
130.21766°
Mean anomaly
130.1743°
Eccentric anomaly
130.19598°
Mean motion
3.56343 °/min
Orbital period
101.03 mins
BSTAR
0.000051489
Loading maneuver chart data...
Computing Atmospheric mass density...
Loading historical data...
Loading historical data...
Loading historical data...
Loading historical data...
Loading historical data...
Loading historical data...
Loading historical data...
Other satellites on launch #31 in the year 1964 (1964-06-18 UTC)

Documentation

Showing up to 5 results
|